Lid_Strength_Index
4 4 3 3 2 2 2 2 1 2 1 1 0 0 0 -0 -0 0 1 0 0 0 -0 -1 -1 -1 -1 -1 -1 -1 -1 -0 -0
5 4 4 3 3 2 2 2 2 2 1 1 1 1 0 0 0 0 0 -0 -0 0 -0 -0 -0 -1 -1 -1 -1 -1 -1 -0 -0
5 4 4 3 3 2 2 2 1 1 1 1 1 1 0 1 0 0 -0 -0 0 0 -0 -0 -0 -0 -0 -0 -1 -1 -1 -0 -0
5 4 4 3 3 2 2 1 1 1 1 1 1 1 1 1 1 0 -0 0 -0 -0 -0 -0 0 -0 -0 -0 -0 -1 -0 -1 -0
5 4 4 3 3 2 2 2 2 1 1 1 1 0 0 0 0 0 1 0 0 -0 -0 -0 -0 0 0 0 0 -0 -0 -0 -0
5 4 4 3 3 3 2 2 2 1 1 1 0 -0 1 1 1 1 1 0 0 -0 -0 -0 0 0 1 1 2 0 -0 -0 -0
5 4 4 4 3 3 2 2 2 1 1 1 1 0 1 1 1 1 1 0 -0 -0 -0 1 1 0 1 0 0 0 -1 -0 -0
5 5 4 4 4 3 3 2 2 1 1 0 0 0 1 1 0 0 -0 0 0 -0 0 0 -0 0 0 -0 0 0 0 -0 -0
5 5 4 4 3 3 3 3 2 1 1 1 0 0 1 1 1 0 0 0 0 0 0 0 0 0 0 0 0 2 2 1 0
5 5 4 3 3 3 2 2 2 2 2 1 1 1 1 1 1 1 0 0 0 0 0 0 0 0 0 0 -0 3 3 3 1
4 4 4 3 3 2 2 1 1 1 1 1 1 1 1 1 1 1 0 0 1 1 1 1 1 1 1 0 0 2 3 3 1
4 3 3 2 2 2 1 1 1 1 1 1 1 1 2 2 2 2 2 3 3 3 3 3 3 2 1 1 0 2 2 1 1
3 3 2 2 2 2 1 1 1 1 2 2 3 3 4 3 3 4 4 4 3 2 1 2 2 1 1 1 1 2 2 2 2
3 3 2 2 2 2 2 2 2 2 3 4 4 4 4 4 4 3 2 2 2 2 2 2 2 2 1 1 1 1 3 3 3
3 3 3 2 3 3 3 3 2 3 3 3 3 3 2 2 3 3 3 2 2 2 2 3 3 3 3 3 2 3 4 4 5
3 3 3 3 3 3 3 3 2 3 2 2 2 2 2 3 3 3 3 3 3 4 3 4 4 5 5 5 4 3 4 5 4
4 4 3 3 3 4 3 2 2 2 2 2 2 2 2 3 3 3 3 4 4 4 5 5 5 6 6 5 5 5 4 5 5
3 3 3 3 3 3 3 2 3 3 2 2 3 3 3 3 4 3 3 3 4 4 4 5 6 6 6 6 6 6 7 8 7
3 3 3 4 3 2 3 3 3 2 2 2 3 4 4 4 4 4 4 4 4 5 7 8 9 9 8 5 7 8 9 10 10
5 3 4 3 2 3 3 3 3 2 2 3 3 4 4 4 4 4 4 4 5 5 5 8 8 9 9 9 9 9 10 10 10